Location: Staunton
(38.1490°N, 79.0720°W)
Time: 23:56:30
(UTC-05:00)

ISS - Pass Details

Date: 10 December 2019
Orbit: 411 x 421 km, 51.6° (Epoch: 15 December)

Event Time Altitude Azimuth Distance (km) Brightness Sun altitude
Rises 18:37:35 0° 302° (WNW) 2,357 0.7 -19.3°
Reaches altitude 10° 18:39:47 10° 293° (WNW) 1,492 -0.2 -19.7°
Maximum altitude 18:42:52 34° 226° (SW) 700 -2.2 -20.3°
Enters shadow 18:44:56 17° 168° (SSE) 1,132 -1.6 -20.7°
